Location: Champs
(48.8539°N, 2.6040°E)
Time: 06:06:42
(UTC+00:00)

Cosmos 2218 Rocket - Pass Details

Date: 26 October 2021
Orbit: 955 x 1006 km, 82.9° (Epoch: 04 December)

Event Time Altitude Azimuth Distance (km) Brightness Sun altitude
Rises 02:56:59 0° 352° (N) 3,749 7.2 -34.6°
Reaches altitude 10° 02:59:35 10° 357° (N) 2,794 6.6 -34.2°
Maximum altitude 03:05:56 59° 76° (ENE) 1,153 4.5 -33.3°
Drops below altitude 10° 03:12:11 10° 156° (SSE) 2,756 6.4 -32.3°
Sets 03:14:44 0° 160° (SSE) 3,694 7.0 -31.9°
